• în România
  • Lista ţărilor
  • Pe 7 zile
  • Temperatura apei
  • Hartă satelitară
  • Meteo pe hartă
  • Widget-uri
  • user-avatar
    Intrare

    Meteo pe oră la Ivanovka-Seleznevka

    Astăzi, 24 Septembrie, Luni

    Timp Temperatura Precipitaţii Vânt Presiune Umiditate
    00:00 +9°C° 0 mm 3 m/s 744 mmHg 88%
    01:00 +8°C° 0 mm 3 m/s 744 mmHg 89%
    02:00 +8°C° 0 mm 3 m/s 744 mmHg 90%
    03:00 +8°C° 0 mm 3 m/s 744 mmHg 91%
    04:00 +7°C° 0 mm 3 m/s 744 mmHg 92%
    05:00 +7°C° 0 mm 3 m/s 744 mmHg 92%
    06:00 +7°C° 0 mm 3 m/s 744 mmHg 93%
    07:00 +8°C° 0 mm 3 m/s 744 mmHg 88%
    08:00 +9°C° 0 mm 3 m/s 744 mmHg 82%
    09:00 +11°C° 0 mm 4 m/s 744 mmHg 77%
    10:00 +12°C° 0 mm 5 m/s 744 mmHg 71%
    11:00 +13°C° 0 mm 5 m/s 743 mmHg 66%
    12:00 +14°C° 0 mm 6 m/s 743 mmHg 60%
    13:00 +13°C° 0.1 mm 6 m/s 743 mmHg 62%
    14:00 +12°C° 0.1 mm 7 m/s 742 mmHg 64%
    15:00 +11°C° 0.1 mm 7 m/s 742 mmHg 67%
    16:00 +10°C° 1.3 mm 7 m/s 741 mmHg 73%
    17:00 +10°C° 1.3 mm 8 m/s 740 mmHg 79%
    18:00 +9°C° 1.3 mm 8 m/s 739 mmHg 85%
    19:00 +8°C° 1.5 mm 9 m/s 738 mmHg 85%
    20:00 +10°C° 1.5 mm 9 m/s 737 mmHg 86%
    21:00 +9°C° 1.5 mm 10 m/s 736 mmHg 86%
    22:00 +9°C° 0.6 mm 10 m/s 735 mmHg 86%
    23:00 +10°C° 0.6 mm 9 m/s 735 mmHg 86%

    Mâine, 25 Septembrie, Marţi

    Timp Temperatura Precipitaţii Vânt Presiune Umiditate
    00:00 +10°C° 0.6 mm 9 m/s 734 mmHg 86%
    01:00 +10°C° 0.1 mm 8 m/s 734 mmHg 85%
    02:00 +9°C° 0.1 mm 8 m/s 734 mmHg 84%
    03:00 +8°C° 0.1 mm 7 m/s 734 mmHg 82%
    04:00 +7°C° 0 mm 8 m/s 734 mmHg 82%
    05:00 +7°C° 0 mm 8 m/s 734 mmHg 81%
    06:00 +7°C° 0 mm 8 m/s 734 mmHg 81%
    07:00 +7°C° 0 mm 8 m/s 734 mmHg 80%
    08:00 +7°C° 0 mm 8 m/s 734 mmHg 79%
    09:00 +7°C° 0 mm 8 m/s 735 mmHg 79%
    10:00 +7°C° 0 mm 8 m/s 735 mmHg 78%
    11:00 +7°C° 0 mm 8 m/s 736 mmHg 77%
    12:00 +9°C° 0 mm 8 m/s 737 mmHg 76%
    13:00 +7°C° 0.1 mm 8 m/s 737 mmHg 76%
    14:00 +7°C° 0.1 mm 8 m/s 738 mmHg 76%
    15:00 +7°C° 0.1 mm 8 m/s 738 mmHg 76%
    16:00 +6°C° 0.3 mm 8 m/s 739 mmHg 77%
    17:00 +6°C° 0.3 mm 8 m/s 740 mmHg 78%
    18:00 +6°C° 0.3 mm 8 m/s 741 mmHg 79%
    19:00 +5°C° 0.2 mm 7 m/s 742 mmHg 79%
    20:00 +5°C° 0.2 mm 7 m/s 742 mmHg 79%
    21:00 +5°C° 0.2 mm 7 m/s 743 mmHg 80%
    22:00 +5°C° 0 mm 6 m/s 744 mmHg 80%
    23:00 +4°C° 0 mm 6 m/s 744 mmHg 81%

    Poimâine, 26 Septembrie, Miercuri

    Timp Temperatura Precipitaţii Vânt Presiune Umiditate
    00:00 +4°C° 0 mm 6 m/s 745 mmHg 81%
    01:00 +4°C° 0 mm 6 m/s 745 mmHg 82%
    02:00 +3°C° 0 mm 5 m/s 746 mmHg 83%
    03:00 +3°C° 0 mm 5 m/s 747 mmHg 84%
    04:00 +2°C° 0 mm 5 m/s 747 mmHg 85%
    05:00 +2°C° 0 mm 5 m/s 748 mmHg 85%
    06:00 +2°C° 0 mm 5 m/s 749 mmHg 86%
    07:00 +2°C° 0 mm 5 m/s 750 mmHg 81%
    08:00 +3°C° 0 mm 5 m/s 750 mmHg 77%
    09:00 +3°C° 0 mm 6 m/s 751 mmHg 72%
    10:00 +5°C° 0 mm 5 m/s 751 mmHg 66%
    11:00 +6°C° 0 mm 5 m/s 752 mmHg 60%
    12:00 +7°C° 0 mm 5 m/s 752 mmHg 54%
    13:00 +7°C° 0 mm 5 m/s 752 mmHg 52%
    14:00 +8°C° 0 mm 5 m/s 752 mmHg 50%
    15:00 +8°C° 0 mm 4 m/s 752 mmHg 48%
    16:00 +8°C° 0 mm 4 m/s 752 mmHg 52%
    17:00 +8°C° 0 mm 3 m/s 752 mmHg 56%
    18:00 +7°C° 0 mm 2 m/s 752 mmHg 60%
    19:00 +7°C° 0 mm 3 m/s 752 mmHg 62%
    20:00 +5°C° 0 mm 3 m/s 752 mmHg 64%
    21:00 +5°C° 0 mm 4 m/s 752 mmHg 65%
    22:00 +4°C° 0 mm 4 m/s 751 mmHg 66%
    23:00 +3°C° 0 mm 5 m/s 751 mmHg 68%

    27 Septembrie, Joi

    Timp Temperatura Precipitaţii Vânt Presiune Umiditate
    00:00 +3°C° 0 mm 5 m/s 750 mmHg 69%
    01:00 +3°C° 0 mm 6 m/s 750 mmHg 70%
    02:00 +4°C° 0 mm 6 m/s 749 mmHg 70%
    03:00 +4°C° 0 mm 6 m/s 749 mmHg 71%
    04:00 +4°C° 0.2 mm 7 m/s 748 mmHg 71%
    05:00 +4°C° 0.2 mm 8 m/s 747 mmHg 72%
    06:00 +4°C° 0.2 mm 8 m/s 746 mmHg 72%
    07:00 +3°C° 0.9 mm 9 m/s 745 mmHg 74%
    08:00 +3°C° 0.9 mm 9 m/s 744 mmHg 76%
    09:00 +3°C° 0.9 mm 10 m/s 744 mmHg 78%
    10:00 +3°C° 0.8 mm 10 m/s 743 mmHg 79%
    11:00 +5°C° 0.8 mm 10 m/s 743 mmHg 81%
    12:00 +5°C° 0.8 mm 10 m/s 743 mmHg 83%
    13:00 +5°C° 0.3 mm 9 m/s 743 mmHg 83%
    14:00 +6°C° 0.3 mm 9 m/s 743 mmHg 83%
    15:00 +6°C° 0.3 mm 9 m/s 743 mmHg 83%
    16:00 +6°C° 0 mm 8 m/s 743 mmHg 84%
    17:00 +6°C° 0 mm 7 m/s 743 mmHg 85%
    18:00 +8°C° 0 mm 7 m/s 743 mmHg 86%
    19:00 +8°C° 0 mm 6 m/s 743 mmHg 87%
    20:00 +8°C° 0 mm 6 m/s 743 mmHg 88%
    21:00 +8°C° 0 mm 6 m/s 743 mmHg 89%
    22:00 +8°C° 0 mm 5 m/s 744 mmHg 90%
    23:00 +8°C° 0 mm 5 m/s 744 mmHg 91%

    28 Septembrie, Vineri

    Timp Temperatura Precipitaţii Vânt Presiune Umiditate
    00:00 +8°C° 0 mm 5 m/s 744 mmHg 92%
    01:00 +8°C° 0 mm 4 m/s 744 mmHg 93%
    02:00 +7°C° 0 mm 4 m/s 744 mmHg 94%
    03:00 +7°C° 0 mm 4 m/s 744 mmHg 95%
    04:00 +7°C° 0 mm 4 m/s 744 mmHg 95%
    05:00 +7°C° 0 mm 4 m/s 744 mmHg 95%
    06:00 +7°C° 0 mm 5 m/s 744 mmHg 95%
    07:00 +8°C° 0 mm 6 m/s 743 mmHg 93%
    08:00 +9°C° 0 mm 6 m/s 743 mmHg 90%
    09:00 +10°C° 0 mm 7 m/s 742 mmHg 88%
    10:00 +11°C° 0 mm 8 m/s 741 mmHg 86%
    11:00 +12°C° 0 mm 9 m/s 741 mmHg 84%
    12:00 +12°C° 0 mm 10 m/s 740 mmHg 81%
    13:00 +13°C° 0 mm 10 m/s 740 mmHg 80%
    14:00 +13°C° 0 mm 10 m/s 740 mmHg 79%
    15:00 +13°C° 0 mm 10 m/s 739 mmHg 78%
    16:00 +13°C° 0.4 mm 9 m/s 740 mmHg 76%
    17:00 +12°C° 0.4 mm 9 m/s 740 mmHg 75%
    18:00 +11°C° 0.4 mm 9 m/s 741 mmHg 74%
    19:00 +9°C° 0 mm 7 m/s 742 mmHg 76%
    20:00 +8°C° 0 mm 6 m/s 743 mmHg 77%
    21:00 +6°C° 0 mm 5 m/s 744 mmHg 79%
    22:00 +6°C° 0 mm 4 m/s 745 mmHg 81%
    23:00 +5°C° 0 mm 4 m/s 746 mmHg 83%

    29 Septembrie, Sâmbătă

    Timp Temperatura Precipitaţii Vânt Presiune Umiditate
    00:00 +5°C° 0 mm 3 m/s 746 mmHg 85%
    01:00 +4°C° 0 mm 3 m/s 746 mmHg 86%
    02:00 +4°C° 0 mm 3 m/s 747 mmHg 87%
    03:00 +4°C° 0 mm 3 m/s 747 mmHg 89%
    04:00 +4°C° 0 mm 3 m/s 748 mmHg 89%
    05:00 +3°C° 0 mm 3 m/s 748 mmHg 90%
    06:00 +3°C° 0 mm 3 m/s 748 mmHg 91%
    07:00 +4°C° 0 mm 3 m/s 749 mmHg 86%
    08:00 +5°C° 0 mm 3 m/s 749 mmHg 82%
    09:00 +5°C° 0 mm 4 m/s 750 mmHg 78%
    10:00 +6°C° 0 mm 4 m/s 750 mmHg 70%
    11:00 +7°C° 0 mm 4 m/s 750 mmHg 63%
    12:00 +8°C° 0 mm 4 m/s 751 mmHg 56%
    13:00 +8°C° 0 mm 4 m/s 751 mmHg 54%
    14:00 +9°C° 0 mm 5 m/s 751 mmHg 52%
    15:00 +9°C° 0 mm 5 m/s 751 mmHg 51%
    16:00 +8°C° 0 mm 4 m/s 752 mmHg 54%
    17:00 +7°C° 0 mm 4 m/s 752 mmHg 57%
    18:00 +7°C° 0 mm 3 m/s 752 mmHg 61%
    19:00 +5°C° 0 mm 3 m/s 753 mmHg 63%
    20:00 +4°C° 0 mm 3 m/s 754 mmHg 66%
    21:00 +3°C° 0 mm 3 m/s 755 mmHg 68%
    22:00 +3°C° 0 mm 3 m/s 755 mmHg 70%
    23:00 +2°C° 0 mm 3 m/s 755 mmHg 71%
    Arată mai mult

    3.3.7123123